Regional Weather Roundup
Issued by NWS Nashville, TN

Home | Current Version | Previous Version | Text Only | Print | Product List | Glossary On
Versions: 1 2 3 4 5 6 7 8 9 10 11 12 13 14 15 16 17 18 19 20 21 22 23 24 25 26 27 28 29 30 31 32 33 34 35 36 37 38 39 40 41 42 43 44 45 46 47 48 49 50
000
ASUS44 KOHX 311010
RWROHX
MIDDLE TENNESSEE HOURLY WEATHER ROUNDUP
NATIONAL WEATHER SERVICE NASHVILLE TN
500 AM CDT FRI JUL 31 2015

NOTE: "FAIR" INDICATES FEW OR NO CLOUDS BELOW 12,000 FEET WITH
NO SIGNIFICANT WEATHER AND/OR OBSTRUCTIONS TO VISIBILITY.

* THESE REPORTS ARE NOT UNDER NWS QUALITY CONTROL AND MAY NOT
  REPORT WEATHER SUCH AS PRECIPITATION AND FOG.


TNZ005>011-023>034-057-059-062>066-078-080-311100
...NORTHERN MIDDLE TENNESSEE...

CITY           SKY/WX    TMP DP  RH WIND       PRES   REMARKS
CLARKSVILLE    CLEAR     64  63  96 W3        30.08R
CROSSVILLE     PTCLDY    62  57  83 CALM      30.11S
DICKSON        CLEAR     64  61  88 N3        30.09R
NASHVILLE      CLEAR     69  62  78 CALM      30.08R
SMYRNA         CLEAR     62  61  97 CALM      30.08S
$$
TNZ056-058-060-061-075>077-079-093>097-311100
...SOUTHERN MIDDLE TENNESSEE...

CITY           SKY/WX    TMP DP  RH WIND       PRES   REMARKS
COLUMBIA       CLEAR     64  64 100 CALM      30.06S
LEWISBURG      CLEAR     59  56  89 CALM      30.07R
MCMINNVILLE    CLEAR     61  61 100 CALM      30.08R
SHELBYVILLE    CLEAR     63  63 100 N3        30.08R
TULLAHOMA      CLEAR     66  57  72 CALM      30.08S
WINCHESTER     CLEAR     61  61 100 CALM      30.07R
$$


...KEY TO REMARKS...
VSB - VISIBILITY IN MILES
WCI - WIND CHILL INDEX
HX  - HEAT INDEX




USA.gov is the U.S. government's official web portal to all federal, state and local government web resources and services.